sat.trackr.live / text

‹ back to catalog

STARLINK-2342

NORAD 47883 · 2021-021Z

PAYLOAD ACTIVE UNKNOWN

§ Identity

Operator
Country
US
Launch date
2021-03-14
Launch site
AFETR
Launch vehicle
Mass (kg)
RCS (m²)

Purposes: comms

External: N2YO · Heavens-Above · Gunter

§ Orbital elements

Epoch: 2026-08-09T07:03:06.507648Z

Period
87.57 min
Inclination
53.1310°
Eccentricity
0.0005207
Mean motion
16.44437377 rev/d
Perigee alt
150.6 km
Apogee alt
157.4 km
Semi-major
6,532.2 km
B*
3.4182e-4
RAAN
236.0585°
Arg perigee
288.2631°
Mean anomaly
71.7852°
Rev number
30,038

§ Raw data

STARLINK-23421 47883U 21021Z   26221.29382532  .10265833  12504-4  34182-3 0  99982 47883  53.1310 236.0585 0005207 288.2631  71.7852 16.44437377300388

JSON: /api/v1/satellites/47883 · /tle

For live sub-satellite position, see the globe view (requires WebGL).

§ Visibility from observer

Set your observer location to see the next 7 days of passes ≥ 10°. The values pass through the URL so the page stays shareable.

No JS? Fill the form by hand. The geolocation button needs JavaScript.

§ Radio — SatNOGS DB

ModeDescriptionDownlinkUplink
CW Ku-band 11325 MHz beacon 11.325 GHz
CW Ku-band 11575 MHz beacon 11.575 GHz
CW Ku-band 11950 MHz beacon 11.950 GHz
CW Ku-band 12450 MHz beacon 12.450 GHz

4 transmitters · refreshed weekly from db.satnogs.org